{"data":{"norad_id":64539,"epoch":"2026-05-25T00:58:16.288320Z","epoch_age_seconds":82206,"freshness":"FRESH","line1":"1 64539U 25135M   26145.04046630  .00003533  00000+0  15480-3 0  9998","line2":"2 64539  97.4704 260.6905 0001879 243.1601 116.9443 15.22671781 51352","mean_motion":15.22671781,"eccentricity":0.0001879,"inclination_deg":97.4704,"raan_deg":260.6905,"arg_perigee_deg":243.1601,"mean_anomaly_deg":116.9443,"bstar":0.0001548,"rev_number":5135,"period_min":94.570610552347,"perigee_km":496.49354831152,"apogee_km":499.07751999986,"semimajor_km":6875.9225341557,"source":"CELESTRAK","updated_at":"2026-05-25T13:38:04.582833Z"}}